Hourly Data Report for August 02, 2015

All times are specified in Local Standard Time (LST). Add 1 hour to adjust for Daylight Saving Time where and when it is observed.

Metadata including Station Name, Province, Latitude, Longitude, Elevation, Climate ID, WMO ID, TC ID
PUVIRNITUQ A
QUEBEC
Latitude: 60°03'08.000" N Longitude: 77°17'15.000" W Elevation: 25.30 m
Climate ID: 7106223 WMO ID: TC ID: YPX
Hourly Data Report for August 2, 2015
Temp Definition
°C

Dew Point Temp Definition
°C

Rel Hum Definition
%

Wind Dir Definition
10's deg
Wind Spd Definition
km/h

Visibility Definition
km

Stn Press Definition
kPa

Hmdx Definition

Wind Chill Definition

Weather Definition

00:00 Legend Double Dagger 9.0 6.1 82 15 15 16.1 99.53 LegendNANA
01:00 Legend Double Dagger 8.8 6.2 84 17 13 16.1 99.58 LegendNANA
02:00 Legend Double Dagger 8.4 6.0 85 18 18 16.1 99.62 LegendNANA
03:00 Legend Double Dagger 8.4 5.7 83 14 15 16.1 99.67 LegendNANA
04:00 Legend Double Dagger 8.4 6.0 85 15 13 16.1 99.70 LegendNANA
05:00 Legend Double Dagger 8.7 6.0 83 12 13 16.1 99.72 LegendNANA
06:00 Legend Double Dagger 8.9 6.2 83 14 11 16.1 99.76 LegendNANA
07:00 Legend Double Dagger 9.2 6.1 81 13 17 16.1 99.82 LegendNANA
08:00 Legend Double Dagger 9.6 6.9 83 12 15 16.1 99.85 LegendNANA
09:00 Legend Double Dagger 10.2 7.1 81 14 17 16.1 99.88 LegendNANA
10:00 Legend Double Dagger 11.0 7.0 76 13 18 16.1 99.93 LegendNANA
11:00 Legend Double Dagger 10.8 7.1 78 12 15 16.1 99.97 LegendNANA
12:00 Legend Double Dagger 11.8 7.1 73 12 11 16.1 99.99 LegendNANA
13:00 Legend Double Dagger 13.2 7.6 69 15 15 16.1 100.02 LegendNANA
14:00 Legend Double Dagger 13.1 8.1 72 22 5 16.1 100.07 LegendNANA
15:00 Legend Double Dagger 13.6 8.3 70 LegendMM 8 16.1 100.10 LegendNANA
16:00 Legend Double Dagger 14.0 8.9 71 25 9 16.1 100.10 LegendNANA
17:00 Legend Double Dagger 13.7 8.8 72 31 17 16.1 100.14 LegendNANA
18:00 Legend Double Dagger 13.7 9.4 75 32 15 16.1 100.15 LegendNANA
19:00 Legend Double Dagger 12.9 9.6 80 31 21 16.1 100.18 LegendNANA
20:00                    
21:00                    
22:00                    
23:00                    

Notes on Data Quality.

Legend
  • E = Estimated
  • M = Missing
  • NA = Not Available
  • ‡ = Partner data that is not subject to review by the National Climate Archives